Starlink 35808

operational
NORAD ID: 68052 Int'l Des: 2026-041 Owner: SPXS Country: US Constellation: starlink
LEOCIRCULAR

关于 Starlink 35808

正在加载描述...

实时位置

正在加载3D地球...

即将过境

高度历史

Altitude vs Time

uPlot chart will show altitude changes over time

两行轨道根数

1 68052C 26041N 26061.44215278 .00468050 00000+0 62698-3 0 618
2 68052 53.1641 99.6779 0008118 277.6343 147.6058 16.05290928 14
Epoch: Mar 2, 2026 • Age: 29 hours

当前状态

高度 269.6 km
速度 7.75 km/s
星下点 53.32°N, 44.83°W
发射日期 Mar 2, 2026
运行时间 1 days
类型 internet

技术详情

分类 Payload
质量 575.00 kg
干质量 530.00 kg
总质量 575.00 kg
长度 0.30 m
直径 4.10 m
跨度 29.00 m
形状 Box + pan
制造商 SPXS
平台类型 Starlink V2MO
阶段状态 In Orbit
所有者/国家 SPXS/US

大型星座

Loading constellations...